Flag for U.S.A. Weather past 2 weeks in Toccoa, Georgia, U.S.A.

Now
69 °F

Clear.


Feels Like: 69 °F
Forecast: 61 / 84 °F
Wind: 3 mph from North

Location: Clemson-Oconee County Airport

Current Time: Jul 30, 2014 at 3:14:56 AM

Latest Report: Jul 30, 2014 at 1:54 AM


Visibility: 10 mi

Pressure: 30.01 "Hg

Humidity: 61%

Dew point: 55 °F

Location of ToccoaLocation

Historic Weather in Toccoa — Graph

°F

Toccoa temperature yesterday

Maximum temperature yesterday: 85 °F (at 3:54 PM)
Minimum temperature yesterday: 65 °F (at 5:54 AM)
Average temperature yesterday: 76 °F

Past Weeks' High & Low Weather Summary

 TemperatureHumidityPressure
High94 °F (Jul 27, 2:54 PM)88% (Jul 15, 6:54 AM)30.18 "Hg (Jul 15, 6:54 AM)
Low65 °F (Jul 29, 5:54 AM)28% (Jul 28, 3:54 PM)29.76 "Hg (Jul 15, 4:54 PM)
Average78 °F66%29.99 "Hg
* Reported Jul 15 1:54 AM — Jul 30 1:54 AM, Toccoa, Weather by CustomWeather, © 2014

Note: Actual official high and low records may vary slightly from our data, if they occured in-between our weather recording intervals... More about our weather records

Advertising

Toccoa weather history for previous 24 hours

 ConditionsComfort  
Time TempWeatherWind HumidityBarometerVisibility
1:54 AM
Jul 30
69 °FClear.3 mph61%30.01 "Hg10 mi
12:54 AM70 °FClear.3 mph64%30.00 "Hg10 mi
11:54 PM
Jul 29
71 °FClear.5 mph61%29.99 "Hg10 mi
10:54 PM72 °FClear.5 mph59%29.99 "Hg10 mi
9:54 PM75 °FClear.5 mph54%29.98 "Hg10 mi
8:54 PM77 °FSunny.8 mph44%29.95 "Hg10 mi
7:54 PM80 °FSunny.8 mph41%29.93 "Hg10 mi
6:54 PM83 °FSunny.3 mph37%29.93 "Hg10 mi
5:54 PM84 °FSunny.10 mph32%29.93 "Hg10 mi
4:54 PM84 °FSunny.6 mph35%29.93 "Hg10 mi
3:54 PM85 °FPassing clouds.10 mph32%29.93 "Hg10 mi
2:54 PM84 °FSunny.3 mph33%29.94 "Hg10 mi
1:54 PM82 °FMostly cloudy.3 mph35%29.96 "Hg10 mi
12:54 PM80 °FPartly sunny.6 mph39%29.98 "Hg10 mi
11:54 AM81 °FSunny.6 mph39%29.98 "Hg10 mi
9:54 AM76 °FSunny.3 mph50%29.98 "Hg10 mi
8:54 AM73 °FSunny.5 mph62%29.97 "Hg10 mi
7:54 AM70 °FSunny.No wind73%29.96 "Hg10 mi
6:54 AM68 °FClear.3 mph73%29.94 "Hg10 mi
5:54 AM65 °FClear.No wind78%29.93 "Hg10 mi
4:54 AM69 °FClear.No wind68%29.90 "Hg10 mi
3:54 AM70 °FClear.5 mph66%29.90 "Hg10 mi
Weather by CustomWeather, © 2014

See weather overviewHow to use our weather pages